Regional Weather Roundup
Issued by NWS

Home | Current Version | Previous Version | Graphics & Text | Print | Product List | Glossary On
Versions: 1 2 3 4 5 6 7 8 9 10 11 12 13 14 15 16 17 18 19 20 21 22 23 24 25 26 27 28 29 30 31 32 33 34 35 36 37 38 39 40 41 42 43 44 45 46 47 48 49 50
000
ASUS43 KFSD 060210
RWRSD

WEATHER ROUNDUP FOR SOUTH DAKOTA
NATIONAL WEATHER SERVICE SIOUX FALLS SD
800 PM CST FRI FEB 05 2016

NOTE: "FAIR" INDICATES FEW OR NO CLOUDS BELOW 12,000 FEET WITH NO
SIGNIFICANT WEATHER AND/OR OBSTRUCTIONS TO VISIBILITY.


SDZ001>005-009-010-012>017-060300-
NORTHWEST AND NORTH CENTRAL SOUTH DAKOTA

CITY           SKY/WX    TMP DP  RH WIND       PRES   REMARKS
BUFFALO          N/A     29  20  69 W10       30.04F WCI  20
FAITH            N/A     32  22  66 W12       30.13S WCI  23
MOBRIDGE       CLEAR     29  22  75 SE5       30.11S WCI  24
$$

SDZ012>016-024>037-041>051-057-063-072>074-060300-
SOUTHWEST AND SOUTH CENTRAL SOUTH DAKOTA

CITY           SKY/WX    TMP DP  RH WIND       PRES   REMARKS
RAPID CTY ARPT CLEAR     29  21  72 SW6       30.16F WCI  23
PIERRE         CLEAR     31  25  78 SW9       30.17F WCI  23
CUSTER         CLOUDY    25  14  63 W12       30.13F WCI  14
ELLSWORTH AFB  CLEAR     30  20  65 W3        30.15F
PHILIP         CLEAR     30  24  78 W7        30.17F WCI  23
PINE RIDGE     CLEAR     29  21  72 W6        30.21S WCI  23
SPEARFISH      FAIR      32  18  55 W12       30.15R WCI  23
WINNER         FAIR      30  24  78 SW7       30.21F WCI  23
$$

SDZ004>011-016>023-039-040-060300-
NORTHEAST SOUTH DAKOTA

CITY           SKY/WX    TMP DP  RH WIND       PRES   REMARKS
ABERDEEN       CLEAR     24  19  81 SW7       30.16S WCI  16
WATERTOWN      FOG       17  14  88 CALM      30.15R VSB 1/4
BROOKINGS      FOG       19  18  93 W6        30.16F VSB 1/2 WCI  11
SISSETON         N/A     20  18  92 CALM      30.15S
$$

SDZ017-020-022-023-036>040-048>070-060300-
SOUTHEAST SOUTH DAKOTA

CITY           SKY/WX    TMP DP  RH WIND       PRES   REMARKS
SIOUX FALLS    CLOUDY    29  25  85 NW6       30.20S WCI  23
HURON          CLEAR     29  24  82 W7        30.19R WCI  22
CHAMBERLAIN    CLEAR     27  26  96 CALM      30.20F
MITCHELL       CLEAR     28  27  96 SW6       30.21F WCI  22
YANKTON        CLOUDY    34  27  75 NW12      30.24R WCI  25
$$

ABBREVIATIONS USED IN REMARKS
   TC - TEMPERATURE IN CELSIUS
  WCI - WIND CHILL INDEX
   HX - HEAT INDEX
  VSB - VISIBILITY




USA.gov is the U.S. government's official web portal to all federal, state and local government web resources and services.